« Back
NWS Peachtree City, Ga » Text Product » GA Regional Weather Roundup


Printer-friendly Version
Current Version              Previous Versions:   1  2  3  4  5  6  7  8  9  

Regional Weather Roundup

421
ASUS42 KFFC 301703
RWRGA
WEATHER ROUNDUP FOR GEORGIA
NATIONAL WEATHER SERVICE PEACHTREE CITY GA
100 PM EDT SAT JUL 30 2016

NOTE: "FAIR" INDICATES FEW OR NO CLOUDS BELOW 12,000 FEET WITH NO
SIGNIFICANT WEATHER AND/OR OBSTRUCTIONS TO VISIBILITY.

* = USE WITH CAUTION. THE STATIONS MARKED WITH AN ASTERISK MAY NOT
REPORT WEATHER SUCH AS PRECIPITATION, FOG, OR THUNDER AND ARE NOT
QUALITY CONTROLLED BY NWS.

THE REMARK "TC" DENOTES TEMPERATURE READING IN DEGREES CELSIUS.

GAZ001>058-301800-
NORTH GEORGIA

CITY           SKY/WX    TMP DP  RH WIND       PRES   REMARKS
ATLANTA        PTSUNNY   88  73  61 VRB3      30.06F HX  95
ATHENS         SUNNY     93  70  46 W9        30.04F HX  99
CHAMBLEE       PTSUNNY   86  71  60 NW7       30.06F HX  91
PEACHTREE CITY PTSUNNY   88  72  58 NW6       30.06F HX  94
ROME           SUNNY     84  70  62 CALM      30.04F
WEST ATLANTA   TSTM      74  70  87 N5G25     30.07R VSB 1/2
GAINESVILLE    MOSUNNY   86  70  58 NW6       30.08F HX  90
CARTERSVILLE   MOSUNNY   83  73  72 MISG      30.06F


CITY           SKY/WX    TMP DP  RH WIND       PRES   REMARKS
DALTON*        MOSUNNY   82  72  69 SE3       30.05S
LAWRENCEVILLE* PTSUNNY   88  73  62 NW9       30.06F HX  96
MARIETTA       CLOUDY    75  68  78 W5        30.07S THUNDER
KENNESAW*      PTSUNNY   75  70  83 SW5       30.04R
CANTON*        MOSUNNY   86  64  48 CALM      30.08S
BLAIRSVILLE*     N/A    N/A N/A N/A MISG      30.11S
$$

GAZ059>098-102>109-301800-
CENTRAL GEORGIA

CITY           SKY/WX    TMP DP  RH WIND       PRES   REMARKS
AUGUSTA-BUSH   SUNNY     95  69  42 W13       30.01F HX 100
AUGUSTA-DANIEL PTSUNNY   93  69  45 SW6       30.03F HX  98
COLUMBUS       PTSUNNY   86  71  60 N7        30.05F HX  91
MACON          CLOUDY    91  69  48 VRB6      30.04F HX  96
ROBINS AFB     DRIZZLE   89  71  54 VRB2      30.04F HX  96


CITY           SKY/WX    TMP DP  RH WIND       PRES   REMARKS
LAGRANGE*      PTSUNNY   91  77  62 W3        30.06F HX 104
MILLEDGEVILLE* CLOUDY    90  73  58 CALM      30.04F HX  98
$$

GAZ099>101-110>166-301800-
SOUTH GEORGIA

CITY           SKY/WX    TMP DP  RH WIND       PRES   REMARKS
SAVANNAH       MOSUNNY   97  69  40 W9G20     30.03F HX 103
VALDOSTA       MOSUNNY   92  73  53 NW5       30.06F HX 100
ALMA           MOSUNNY   95  70  44 VRB7      30.04F HX 101
ST SIMONS      SUNNY     92  75  57 SE10      30.05F HX 103
ALBANY         MOSUNNY   93  72  50 VRB3      30.07F HX 101
HUNTER AFB     SUNNY     96  75  49 SW12G17   30.01F HX 107
MOODY AFB      PTSUNNY   92  70  47 VRB3      30.06F HX  98
BRUNSWICK      MOSUNNY   95  73  49 W6        30.05F HX 105


CITY           SKY/WX    TMP DP  RH WIND       PRES   REMARKS
BAINBRIDGE*    MOSUNNY   91  73  55 W3        30.05F HX 100
MOULTRIE*      MOSUNNY   90  70  51 W5        30.07F HX  95
VIDALIA*       MOSUNNY   97  68  38 W6        30.04F HX 101
WAYCROSS*      MOSUNNY   98  73  45 W3        30.05S HX 108
DOUGLAS*       MOSUNNY   91  68  46 W6        30.07S HX  95
$$




USA.gov is the U.S. government's official web portal to all federal, state and local government web resources and services.